| time (UTC) | temp F | wind direction | speed MPH | gust MPH | rain 1hr in | rain 24hr in | rain mn in | humidity % | barometer mb |
| 20260831093258 | 69 | 343 | 0.0 | 0.0 | 0.00 | 0.00 | 0.00 | 99 | 1019.4 |
| 20260831092754 | 69 | 348 | 0.0 | 0.0 | 0.00 | 0.00 | 0.00 | 99 | 1019.6 |
| 20260831092250 | 69 | 346 | 0.0 | 0.0 | 0.00 | 0.00 | 0.00 | 99 | 1019.7 |
| 20260831091749 | 69 | 346 | 0.0 | 0.0 | 0.00 | 0.00 | 0.00 | 99 | 1019.4 |
| 20260831091245 | 69 | 346 | 0.0 | 0.0 | 0.00 | 0.00 | 0.00 | 99 | 1019.4 |
| 20260831090741 | 69 | 346 | 0.0 | 0.0 | 0.00 | 0.00 | 0.00 | 99 | 1019.5 |
| 20260831090237 | 69 | 348 | 0.0 | 0.0 | 0.00 | 0.00 | 0.00 | 99 | 1019.3 |
| 20260831085732 | 69 | 346 | 0.0 | 0.0 | 0.00 | 0.00 | 0.00 | 99 | 1019.2 |
| 20260831085227 | 69 | 347 | 0.0 | 0.0 | 0.00 | 0.00 | 0.00 | 99 | 1019.3 |
| 20260831084722 | 69 | 346 | 0.0 | 0.0 | 0.00 | 0.00 | 0.00 | 99 | 1019.3 |
| 20260831084219 | 68 | 346 | 0.0 | 0.0 | 0.00 | 0.00 | 0.00 | 99 | 1019.1 |
| 20260831083714 | 69 | 339 | 0.0 | 0.0 | 0.00 | 0.00 | 0.00 | 99 | 1019.1 |
| 20260831083210 | 68 | 344 | 0.0 | 0.0 | 0.00 | 0.00 | 0.00 | 99 | 1019.1 |
| 20260831082708 | 68 | 344 | 0.0 | 0.0 | 0.00 | 0.00 | 0.00 | 99 | 1019.2 |
| 20260831082204 | 68 | 347 | 0.0 | 0.0 | 0.00 | 0.00 | 0.00 | 99 | 1019.1 |
| 20260831081659 | 68 | 347 | 0.0 | 0.0 | 0.00 | 0.00 | 0.00 | 99 | 1019.1 |
| 20260831081155 | 68 | 343 | 0.0 | 0.0 | 0.00 | 0.00 | 0.00 | 99 | 1018.8 |
| 20260831080651 | 68 | 341 | 0.0 | 0.0 | 0.00 | 0.00 | 0.00 | 99 | 1018.9 |
| 20260831080150 | 68 | 343 | 0.0 | 0.0 | 0.00 | 0.00 | 0.00 | 99 | 1019.0 |
| 20260831075646 | 68 | 344 | 0.0 | 0.0 | 0.00 | 0.00 | 0.00 | 99 | 1018.9 |
| 20260831075141 | 68 | 344 | 0.0 | 0.0 | 0.00 | 0.00 | 0.00 | 99 | 1019.0 |
| 20260831074640 | 68 | 343 | 0.0 | 0.0 | 0.00 | 0.00 | 0.00 | 99 | 1018.9 |
| 20260831074135 | 68 | 343 | 0.0 | 0.0 | 0.00 | 0.00 | 0.00 | 99 | 1019.0 |
| 20260831073630 | 68 | 343 | 0.0 | 0.0 | 0.00 | 0.00 | 0.00 | 99 | 1019.0 |
| 20260831073129 | 68 | 345 | 0.0 | 0.0 | 0.00 | 0.00 | 0.00 | 99 | 1019.1 |
| 20260831072625 | 68 | 345 | 0.0 | 0.0 | 0.00 | 0.00 | 0.00 | 99 | 1019.1 |
| 20260831072122 | 68 | 344 | 0.0 | 0.0 | 0.00 | 0.00 | 0.00 | 99 | 1019.0 |
| 20260831071620 | 68 | 347 | 0.0 | 0.0 | 0.00 | 0.00 | 0.00 | 99 | 1019.4 |
| 20260831071116 | 68 | 345 | 0.0 | 0.0 | 0.00 | 0.00 | 0.00 | 99 | 1019.4 |
| 20260831070615 | 68 | 345 | 0.0 | 0.0 | 0.00 | 0.00 | 0.00 | 99 | 1019.3 |
| 20260831070109 | 68 | 345 | 0.0 | 0.0 | 0.00 | 0.00 | 0.00 | 99 | 1019.3 |
| 20260831065608 | 68 | 344 | 0.0 | 0.0 | 0.00 | 0.00 | 0.00 | 99 | 1019.5 |
| 20260831065102 | 68 | 345 | 0.0 | 0.0 | 0.00 | 0.00 | 0.00 | 99 | 1019.7 |
| 20260831064557 | 69 | 346 | 0.0 | 0.0 | 0.00 | 0.00 | 0.00 | 99 | 1019.4 |
| 20260831064053 | 68 | 346 | 0.0 | 0.0 | 0.00 | 0.00 | 0.00 | 99 | 1019.8 |
| 20260831063548 | 68 | 346 | 0.0 | 0.0 | 0.00 | 0.00 | 0.00 | 99 | 1019.8 |
| 20260831063048 | 68 | 347 | 0.0 | 0.0 | 0.00 | 0.00 | 0.00 | 99 | 1019.8 |
| 20260831062543 | 68 | 346 | 0.0 | 0.0 | 0.00 | 0.00 | 0.00 | 99 | 1019.8 |
| 20260831062043 | 69 | 346 | 0.0 | 0.0 | 0.00 | 0.00 | 0.00 | 99 | 1019.8 |
| 20260831061541 | 69 | 343 | 0.0 | 0.0 | 0.00 | 0.00 | 0.00 | 99 | 1019.6 |
| 20260831061037 | 69 | 344 | 0.0 | 0.0 | 0.00 | 0.00 | 0.00 | 99 | 1019.7 |
| 20260831060532 | 68 | 344 | 0.0 | 0.0 | 0.00 | 0.00 | 0.00 | 99 | 1019.7 |
| 20260831060028 | 68 | 343 | 0.0 | 0.0 | 0.00 | 0.00 | 0.00 | 99 | 1019.9 |
| 20260831055522 | 68 | 343 | 0.0 | 0.0 | 0.00 | 0.00 | 0.00 | 99 | 1019.7 |
| 20260831055017 | 68 | 343 | 0.0 | 0.0 | 0.00 | 0.00 | 0.00 | 99 | 1019.6 |
| 20260831054511 | 69 | 343 | 0.0 | 0.0 | 0.00 | 0.00 | 0.00 | 99 | 1019.7 |
| 20260831054010 | 69 | 344 | 0.0 | 0.0 | 0.00 | 0.00 | 0.00 | 99 | 1019.7 |
| 20260831053508 | 69 | 344 | 0.0 | 0.0 | 0.00 | 0.00 | 0.00 | 99 | 1019.8 |
| 20260831053004 | 69 | 343 | 0.0 | 0.0 | 0.00 | 0.00 | 0.00 | 99 | 1019.7 |
| 20260831052458 | 69 | 344 | 0.0 | 0.0 | 0.00 | 0.00 | 0.00 | 99 | 1019.7 |
| 20260831051956 | 69 | 343 | 0.0 | 0.0 | 0.00 | 0.00 | 0.00 | 99 | 1019.8 |
| 20260831051454 | 69 | 344 | 0.0 | 0.0 | 0.00 | 0.00 | 0.00 | 99 | 1019.9 |
| 20260831050949 | 69 | 344 | 0.0 | 0.0 | 0.00 | 0.00 | 0.00 | 99 | 1019.9 |
| 20260831050449 | 69 | 344 | 0.0 | 0.0 | 0.00 | 0.00 | 0.00 | 99 | 1019.6 |
| 20260831045947 | 69 | 344 | 0.0 | 0.0 | 0.00 | 0.00 | 0.00 | 99 | 1019.7 |
| 20260831045447 | 69 | 345 | 0.0 | 0.0 | 0.00 | 0.00 | 0.00 | 99 | 1019.8 |
| 20260831044942 | 69 | 345 | 0.0 | 0.0 | 0.00 | 0.00 | 0.00 | 99 | 1019.7 |
| 20260831044438 | 69 | 345 | 0.0 | 0.0 | 0.00 | 0.00 | 0.00 | 99 | 1019.6 |
| 20260831043933 | 69 | 348 | 0.0 | 0.0 | 0.00 | 0.00 | 0.00 | 99 | 1019.7 |
| 20260831043432 | 70 | 346 | 0.0 | 0.0 | 0.00 | 0.00 | 0.00 | 98 | 1019.8 |
| 20260831042928 | 70 | 343 | 0.0 | 0.0 | 0.00 | 0.00 | 0.00 | 98 | 1019.7 |
| 20260831042427 | 70 | 346 | 0.0 | 0.0 | 0.00 | 0.00 | 0.00 | 98 | 1019.6 |
| 20260831041922 | 70 | 347 | 0.0 | 0.0 | 0.00 | 0.00 | 0.00 | 98 | 1019.7 |
| 20260831041422 | 70 | 346 | 0.0 | 0.0 | 0.00 | 0.00 | 0.00 | 98 | 1019.8 |
| 20260831040917 | 70 | 346 | 0.0 | 0.0 | 0.00 | 0.00 | 0.00 | 98 | 1019.9 |
| 20260831040412 | 70 | 347 | 0.0 | 0.0 | 0.00 | 0.00 | 0.00 | 98 | 1019.8 |
| 20260831035909 | 70 | 345 | 0.0 | 0.0 | 0.00 | 0.00 | 0.00 | 98 | 1020.0 |
| 20260831035408 | 70 | 347 | 0.0 | 0.0 | 0.00 | 0.00 | 0.00 | 97 | 1020.0 |
| 20260831034903 | 70 | 347 | 0.0 | 0.0 | 0.00 | 0.00 | 0.00 | 97 | 1019.9 |
| 20260831034359 | 70 | 347 | 0.0 | 0.0 | 0.00 | 0.00 | 0.00 | 97 | 1020.0 |
| 20260831033853 | 71 | 348 | 0.0 | 0.0 | 0.00 | 0.00 | 0.00 | 97 | 1019.7 |
| 20260831033348 | 71 | 348 | 0.0 | 0.0 | 0.00 | 0.00 | 0.00 | 97 | 1019.8 |
| 20260831032844 | 70 | 345 | 0.0 | 0.0 | 0.00 | 0.00 | 0.00 | 96 | 1019.8 |
| 20260831032338 | 71 | 345 | 0.0 | 0.0 | 0.00 | 0.00 | 0.00 | 96 | 1019.7 |
| 20260831031834 | 71 | 345 | 0.0 | 0.0 | 0.00 | 0.00 | 0.00 | 96 | 1020.1 |
| 20260831031333 | 71 | 346 | 0.0 | 0.0 | 0.00 | 0.00 | 0.00 | 96 | 1019.9 |
| 20260831030828 | 71 | 345 | 0.0 | 0.0 | 0.00 | 0.00 | 0.00 | 96 | 1019.9 |
| 20260831030326 | 71 | 345 | 0.0 | 0.0 | 0.00 | 0.00 | 0.00 | 96 | 1019.9 |
| 20260831025825 | 71 | 343 | 0.0 | 0.0 | 0.00 | 0.00 | 0.00 | 96 | 1019.8 |
| 20260831025320 | 71 | 344 | 0.0 | 0.0 | 0.00 | 0.00 | 0.00 | 95 | 1019.9 |
| 20260831024816 | 71 | 345 | 0.0 | 0.0 | 0.00 | 0.00 | 0.00 | 95 | 1019.9 |
| 20260831024315 | 71 | 345 | 0.0 | 0.0 | 0.00 | 0.00 | 0.00 | 95 | 1020.0 |
| 20260831023814 | 71 | 345 | 0.0 | 0.0 | 0.00 | 0.00 | 0.00 | 95 | 1019.9 |
| 20260831023312 | 71 | 345 | 0.0 | 0.0 | 0.00 | 0.00 | 0.00 | 94 | 1020.0 |
| 20260831022808 | 71 | 346 | 0.0 | 0.0 | 0.00 | 0.00 | 0.00 | 94 | 1020.0 |
| 20260831022306 | 72 | 346 | 0.0 | 0.0 | 0.00 | 0.00 | 0.00 | 94 | 1019.8 |
| 20260831021801 | 72 | 341 | 0.0 | 0.0 | 0.00 | 0.00 | 0.00 | 94 | 1020.0 |
| 20260831021256 | 72 | 345 | 0.0 | 0.0 | 0.00 | 0.00 | 0.00 | 94 | 1019.6 |
| 20260831020753 | 72 | 347 | 0.0 | 0.0 | 0.00 | 0.00 | 0.00 | 93 | 1019.8 |
| 20260831020252 | 72 | 347 | 0.0 | 0.0 | 0.00 | 0.00 | 0.00 | 93 | 1019.8 |
| 20260831015747 | 72 | 347 | 0.0 | 0.0 | 0.00 | 0.00 | 0.00 | 93 | 1019.8 |
| 20260831015242 | 72 | 348 | 0.0 | 0.0 | 0.00 | 0.00 | 0.00 | 92 | 1019.9 |
| 20260831014737 | 72 | 348 | 0.0 | 0.0 | 0.00 | 0.00 | 0.00 | 92 | 1019.9 |
| 20260831014232 | 72 | 348 | 0.0 | 0.0 | 0.00 | 0.00 | 0.00 | 92 | 1019.7 |
| 20260831013728 | 72 | 347 | 0.0 | 0.0 | 0.00 | 0.00 | 0.00 | 92 | 1019.7 |
| 20260831013227 | 73 | 347 | 0.0 | 0.0 | 0.00 | 0.00 | 0.00 | 91 | 1019.6 |
| 20260831012722 | 73 | 347 | 0.0 | 0.0 | 0.00 | 0.00 | 0.00 | 91 | 1019.7 |
| 20260831012218 | 73 | 347 | 0.0 | 0.0 | 0.00 | 0.00 | 0.00 | 91 | 1019.4 |
| 20260831011717 | 73 | 345 | 0.0 | 0.0 | 0.00 | 0.00 | 0.00 | 91 | 1019.5 |
| 20260831011213 | 73 | 345 | 0.0 | 0.0 | 0.00 | 0.00 | 0.00 | 91 | 1019.3 |
| 20260831010708 | 73 | 345 | 0.0 | 0.0 | 0.00 | 0.00 | 0.00 | 90 | 1019.3 |
| 20260831010209 | 74 | 345 | 0.0 | 0.0 | 0.00 | 0.00 | 0.00 | 90 | 1019.5 |
| 20260831005708 | 74 | 346 | 0.0 | 0.0 | 0.00 | 0.00 | 0.00 | 90 | 1019.6 |
| 20260831005204 | 74 | 346 | 0.0 | 0.0 | 0.00 | 0.00 | 0.00 | 89 | 1019.2 |
| 20260831004659 | 75 | 345 | 0.0 | 0.0 | 0.00 | 0.00 | 0.00 | 88 | 1019.3 |
| 20260831004155 | 75 | 346 | 0.0 | 0.0 | 0.00 | 0.00 | 0.00 | 87 | 1019.0 |
| 20260831003651 | 75 | 346 | 0.0 | 0.0 | 0.00 | 0.00 | 0.00 | 87 | 1019.2 |
| 20260831003147 | 76 | 345 | 0.0 | 0.0 | 0.00 | 0.00 | 0.00 | 86 | 1019.2 |
| 20260831002645 | 77 | 346 | 0.0 | 0.0 | 0.00 | 0.00 | 0.00 | 85 | 1019.1 |
| 20260831002141 | 77 | 346 | 0.0 | 0.0 | 0.00 | 0.00 | 0.00 | 84 | 1019.1 |
| 20260831001636 | 78 | 346 | 0.0 | 0.0 | 0.00 | 0.00 | 0.00 | 82 | 1019.0 |
| 20260831001131 | 78 | 346 | 0.0 | 0.0 | 0.00 | 0.00 | 0.00 | 82 | 1019.0 |
| 20260831000628 | 79 | 346 | 0.0 | 0.0 | 0.00 | 0.00 | 0.00 | 81 | 1019.0 |
| 20260831000123 | 79 | 346 | 0.0 | 0.0 | 0.00 | 0.00 | 0.00 | 81 | 1018.8 |
| 20260830235622 | 79 | 348 | 0.0 | 0.0 | 0.00 | 0.00 | 0.00 | 80 | 1018.8 |
| 20260830235117 | 79 | 348 | 0.0 | 0.0 | 0.00 | 0.00 | 0.00 | 80 | 1018.9 |
| 20260830234612 | 80 | 348 | 0.0 | 0.0 | 0.00 | 0.00 | 0.00 | 81 | 1019.0 |
| 20260830234107 | 80 | 348 | 0.0 | 0.0 | 0.00 | 0.00 | 0.00 | 79 | 1018.9 |
| 20260830233603 | 81 | 349 | 0.0 | 0.0 | 0.00 | 0.00 | 0.00 | 80 | 1018.8 |
| 20260830233058 | 82 | 346 | 0.0 | 0.0 | 0.00 | 0.00 | 0.00 | 77 | 1018.7 |
| 20260830232554 | 84 | 348 | 0.0 | 0.0 | 0.00 | 0.00 | 0.00 | 71 | 1018.9 |
| 20260830232050 | 84 | 345 | 0.0 | 0.0 | 0.00 | 0.00 | 0.00 | 68 | 1018.8 |
| 20260830231545 | 85 | 342 | 0.0 | 0.0 | 0.00 | 0.00 | 0.00 | 68 | 1018.7 |
| 20260830231044 | 85 | 337 | 0.0 | 0.0 | 0.00 | 0.00 | 0.00 | 63 | 1018.5 |
| 20260830230540 | 86 | 329 | 0.0 | 0.0 | 0.00 | 0.00 | 0.00 | 66 | 1018.6 |
| 20260830230035 | 86 | 329 | 0.0 | 0.0 | 0.00 | 0.00 | 0.00 | 60 | 1018.4 |
| 20260830225530 | 86 | 316 | 0.0 | 0.0 | 0.00 | 0.00 | 0.00 | 59 | 1018.8 |
| 20260830225029 | 87 | 223 | 3.0 | 6.0 | 0.00 | 0.00 | 0.00 | 58 | 1018.5 |
| 20260830224527 | 87 | 345 | 0.0 | 1.0 | 0.00 | 0.00 | 0.00 | 59 | 1018.5 |
| 20260830224025 | 88 | 297 | 2.0 | 2.0 | 0.00 | 0.00 | 0.00 | 59 | 1018.3 |
| 20260830223521 | 88 | 194 | 4.0 | 5.0 | 0.00 | 0.00 | 0.00 | 58 | 1018.5 |
| 20260830223015 | 89 | 191 | 5.0 | 6.0 | 0.00 | 0.00 | 0.00 | 56 | 1018.2 |
| 20260830222510 | 87 | 274 | 2.0 | 2.0 | 0.00 | 0.00 | 0.00 | 59 | 1018.2 |
| 20260830222006 | 89 | 7 | 0.0 | 0.0 | 0.00 | 0.00 | 0.00 | 58 | 1018.3 |
| 20260830221502 | 89 | 238 | 4.0 | 6.0 | 0.00 | 0.00 | 0.00 | 55 | 1018.5 |
| 20260830220957 | 90 | 320 | 3.0 | 5.0 | 0.00 | 0.00 | 0.00 | 53 | 1018.5 |
| 20260830220451 | 90 | 342 | 1.0 | 2.0 | 0.00 | 0.00 | 0.00 | 56 | 1018.5 |
| 20260830215949 | 91 | 225 | 4.0 | 6.0 | 0.00 | 0.00 | 0.00 | 54 | 1018.6 |
| 20260830215444 | 91 | 305 | 1.0 | 3.0 | 0.00 | 0.00 | 0.00 | 52 | 1018.6 |
| 20260830214938 | 90 | 336 | 2.0 | 2.0 | 0.00 | 0.00 | 0.00 | 54 | 1018.7 |
| 20260830214434 | 90 | 251 | 5.0 | 7.0 | 0.00 | 0.00 | 0.00 | 53 | 1018.8 |
| 20260830213929 | 90 | 270 | 2.0 | 2.0 | 0.00 | 0.00 | 0.00 | 54 | 1018.7 |
| 20260830213424 | 90 | 187 | 7.0 | 7.0 | 0.00 | 0.00 | 0.00 | 53 | 1018.7 |
| 20260830212920 | 91 | 351 | 2.0 | 3.0 | 0.00 | 0.00 | 0.00 | 53 | 1018.8 |
| 20260830212415 | 90 | 323 | 2.0 | 2.0 | 0.00 | 0.00 | 0.00 | 51 | 1018.9 |
| 20260830211914 | 91 | 350 | 1.0 | 1.0 | 0.00 | 0.00 | 0.00 | 52 | 1018.9 |
| 20260830211409 | 91 | 227 | 4.0 | 6.0 | 0.00 | 0.00 | 0.00 | 52 | 1018.9 |
| 20260830210905 | 91 | 212 | 4.0 | 6.0 | 0.00 | 0.00 | 0.00 | 52 | 1019.1 |
| 20260830210404 | 91 | 324 | 2.0 | 2.0 | 0.00 | 0.00 | 0.00 | 52 | 1019.1 |
| 20260830205901 | 91 | 320 | 1.0 | 1.0 | 0.00 | 0.00 | 0.00 | 51 | 1019.0 |
| 20260830205400 | 90 | 180 | 4.0 | 5.0 | 0.00 | 0.00 | 0.00 | 54 | 1019.0 |
| 20260830204856 | 90 | 229 | 4.0 | 6.0 | 0.00 | 0.00 | 0.00 | 52 | 1019.0 |
| 20260830204354 | 91 | 189 | 2.0 | 3.0 | 0.00 | 0.00 | 0.00 | 50 | 1019.3 |
| 20260830203849 | 92 | 221 | 6.0 | 7.0 | 0.00 | 0.00 | 0.00 | 50 | 1019.2 |
| 20260830203346 | 92 | 333 | 1.0 | 2.0 | 0.00 | 0.00 | 0.00 | 49 | 1019.3 |
| 20260830202845 | 92 | 357 | 2.0 | 2.0 | 0.00 | 0.00 | 0.00 | 50 | 1019.4 |
| 20260830202341 | 90 | 335 | 0.0 | 0.0 | 0.00 | 0.00 | 0.00 | 49 | 1019.4 |
| 20260830201836 | 91 | 309 | 2.0 | 2.0 | 0.00 | 0.00 | 0.00 | 48 | 1019.5 |
| 20260830201330 | 92 | 340 | 2.0 | 3.0 | 0.00 | 0.00 | 0.00 | 45 | 1019.5 |
| 20260830200825 | 91 | 326 | 1.0 | 2.0 | 0.00 | 0.00 | 0.00 | 48 | 1019.5 |
| 20260830200325 | 90 | 320 | 0.0 | 0.0 | 0.00 | 0.00 | 0.00 | 49 | 1019.6 |
| 20260830195820 | 91 | 175 | 4.0 | 5.0 | 0.00 | 0.00 | 0.00 | 47 | 1019.6 |
| 20260830195315 | 93 | 335 | 0.0 | 0.0 | 0.00 | 0.00 | 0.00 | 46 | 1019.6 |
| 20260830194813 | 92 | 349 | 1.0 | 1.0 | 0.00 | 0.00 | 0.00 | 47 | 1019.7 |
| 20260830194312 | 92 | 329 | 3.0 | 3.0 | 0.00 | 0.00 | 0.00 | 49 | 1020.0 |
| 20260830193808 | 91 | 336 | 2.0 | 3.0 | 0.00 | 0.00 | 0.00 | 48 | 1020.2 |
| 20260830193308 | 92 | 334 | 0.0 | 0.0 | 0.00 | 0.00 | 0.00 | 50 | 1020.1 |
| 20260830192804 | 93 | 333 | 0.0 | 0.0 | 0.00 | 0.00 | 0.00 | 48 | 1020.3 |
| 20260830192305 | 93 | 251 | 2.0 | 3.0 | 0.00 | 0.00 | 0.00 | 50 | 1020.3 |
| 20260830191759 | 91 | 320 | 1.0 | 1.0 | 0.00 | 0.00 | 0.00 | 51 | 1020.4 |
| 20260830191258 | 92 | 257 | 2.0 | 3.0 | 0.00 | 0.00 | 0.00 | 51 | 1020.4 |
| 20260830190754 | 91 | 349 | 2.0 | 2.0 | 0.00 | 0.00 | 0.00 | 52 | 1020.8 |
| 20260830190249 | 91 | 323 | 3.0 | 3.0 | 0.00 | 0.00 | 0.00 | 50 | 1020.6 |
| 20260830185748 | 89 | 341 | 0.0 | 0.0 | 0.00 | 0.00 | 0.00 | 54 | 1020.8 |
| 20260830185243 | 87 | 340 | 0.0 | 1.0 | 0.00 | 0.00 | 0.00 | 55 | 1020.9 |
| 20260830184743 | 88 | 349 | 0.0 | 1.0 | 0.00 | 0.00 | 0.00 | 55 | 1020.8 |
| 20260830184242 | 88 | 301 | 3.0 | 5.0 | 0.00 | 0.00 | 0.00 | 53 | 1020.9 |
| 20260830183738 | 91 | 244 | 3.0 | 5.0 | 0.00 | 0.00 | 0.00 | 50 | 1021.0 |
| 20260830183233 | 89 | 328 | 4.0 | 5.0 | 0.00 | 0.00 | 0.00 | 53 | 1021.1 |
| 20260830182733 | 89 | 354 | 2.0 | 3.0 | 0.00 | 0.00 | 0.00 | 53 | 1021.2 |
| 20260830182229 | 92 | 339 | 4.0 | 7.0 | 0.00 | 0.00 | 0.00 | 51 | 1021.1 |
| 20260830181725 | 91 | 349 | 2.0 | 3.0 | 0.00 | 0.00 | 0.00 | 52 | 1021.3 |
| 20260830181220 | 92 | 222 | 2.0 | 5.0 | 0.00 | 0.00 | 0.00 | 50 | 1021.3 |
| 20260830180719 | 91 | 334 | 2.0 | 2.0 | 0.00 | 0.00 | 0.00 | 50 | 1021.3 |
| 20260830180214 | 91 | 234 | 5.0 | 7.0 | 0.00 | 0.00 | 0.00 | 53 | 1021.2 |
| 20260830175714 | 91 | 239 | 3.0 | 3.0 | 0.00 | 0.00 | 0.00 | 53 | 1021.2 |
| 20260830175208 | 92 | 199 | 5.0 | 7.0 | 0.00 | 0.00 | 0.00 | 50 | 1021.4 |
| 20260830174704 | 91 | 344 | 1.0 | 2.0 | 0.00 | 0.00 | 0.00 | 50 | 1021.3 |
| 20260830174200 | 91 | 289 | 2.0 | 3.0 | 0.00 | 0.00 | 0.00 | 50 | 1021.4 |
| 20260830173659 | 91 | 336 | 3.0 | 3.0 | 0.00 | 0.00 | 0.00 | 49 | 1021.6 |
| 20260830173154 | 89 | 347 | 3.0 | 5.0 | 0.00 | 0.00 | 0.00 | 51 | 1021.7 |
| 20260830172651 | 89 | 246 | 4.0 | 6.0 | 0.00 | 0.00 | 0.00 | 49 | 1021.5 |
| 20260830172148 | 91 | 1 | 2.0 | 3.0 | 0.00 | 0.00 | 0.00 | 52 | 1021.7 |
| 20260830171648 | 90 | 321 | 2.0 | 2.0 | 0.00 | 0.00 | 0.00 | 52 | 1021.6 |
| 20260830171142 | 91 | 308 | 5.0 | 6.0 | 0.00 | 0.00 | 0.00 | 49 | 1021.7 |
| 20260830170637 | 90 | 299 | 5.0 | 7.0 | 0.00 | 0.00 | 0.00 | 52 | 1021.7 |
| 20260830170137 | 89 | 245 | 4.0 | 5.0 | 0.00 | 0.00 | 0.00 | 54 | 1021.5 |
| 20260830165631 | 89 | 192 | 4.0 | 6.0 | 0.00 | 0.00 | 0.00 | 54 | 1021.7 |
| 20260830165127 | 89 | 143 | 3.0 | 5.0 | 0.00 | 0.00 | 0.00 | 53 | 1021.7 |
| 20260830164624 | 91 | 295 | 0.0 | 1.0 | 0.00 | 0.00 | 0.00 | 58 | 1021.6 |
| 20260830164119 | 89 | 314 | 2.0 | 2.0 | 0.00 | 0.00 | 0.00 | 55 | 1021.6 |
| 20260830163616 | 88 | 338 | 1.0 | 2.0 | 0.00 | 0.00 | 0.00 | 57 | 1021.6 |
| 20260830163115 | 90 | 311 | 3.0 | 5.0 | 0.00 | 0.00 | 0.00 | 57 | 1021.7 |
| 20260830162610 | 90 | 320 | 3.0 | 5.0 | 0.00 | 0.00 | 0.00 | 59 | 1021.7 |
| 20260830162106 | 89 | 286 | 1.0 | 1.0 | 0.00 | 0.00 | 0.00 | 64 | 1021.6 |
| 20260830161606 | 87 | 347 | 3.0 | 3.0 | 0.00 | 0.00 | 0.00 | 64 | 1021.7 |
| 20260830161101 | 87 | 226 | 3.0 | 5.0 | 0.00 | 0.00 | 0.00 | 67 | 1021.7 |
| 20260830160557 | 86 | 350 | 1.0 | 1.0 | 0.00 | 0.00 | 0.00 | 68 | 1021.6 |
| 20260830160052 | 86 | 351 | 0.0 | 2.0 | 0.00 | 0.00 | 0.00 | 69 | 1021.9 |
| 20260830155548 | 85 | 228 | 2.0 | 2.0 | 0.00 | 0.00 | 0.00 | 71 | 1021.7 |
| 20260830155044 | 85 | 343 | 0.0 | 1.0 | 0.00 | 0.00 | 0.00 | 69 | 1021.7 |
| 20260830154538 | 86 | 181 | 3.0 | 5.0 | 0.00 | 0.00 | 0.00 | 69 | 1021.7 |
| 20260830154035 | 86 | 355 | 3.0 | 3.0 | 0.00 | 0.00 | 0.00 | 69 | 1021.9 |
| 20260830153531 | 85 | 297 | 1.0 | 2.0 | 0.00 | 0.00 | 0.00 | 71 | 1022.0 |
| 20260830153031 | 85 | 255 | 2.0 | 2.0 | 0.00 | 0.00 | 0.00 | 71 | 1021.9 |
| 20260830152526 | 85 | 293 | 1.0 | 2.0 | 0.00 | 0.00 | 0.00 | 71 | 1021.9 |
| 20260830152025 | 83 | 311 | 0.0 | 1.0 | 0.00 | 0.00 | 0.00 | 74 | 1021.6 |
| 20260830151524 | 82 | 322 | 1.0 | 1.0 | 0.00 | 0.00 | 0.00 | 76 | 1021.7 |
| 20260830151020 | 82 | 219 | 5.0 | 6.0 | 0.00 | 0.00 | 0.00 | 76 | 1021.7 |
| 20260830150519 | 82 | 228 | 3.0 | 3.0 | 0.00 | 0.00 | 0.00 | 76 | 1021.5 |
| 20260830150014 | 82 | 249 | 2.0 | 3.0 | 0.00 | 0.00 | 0.00 | 76 | 1021.2 |
| 20260830145513 | 82 | 241 | 3.0 | 3.0 | 0.00 | 0.00 | 0.00 | 75 | 1021.4 |
| 20260830145009 | 83 | 178 | 2.0 | 3.0 | 0.00 | 0.00 | 0.00 | 73 | 1021.5 |
| 20260830144505 | 81 | 334 | 1.0 | 2.0 | 0.00 | 0.00 | 0.00 | 77 | 1021.3 |
| 20260830144000 | 80 | 359 | 1.0 | 2.0 | 0.00 | 0.00 | 0.00 | 79 | 1021.4 |
| 20260830143456 | 80 | 6 | 1.0 | 1.0 | 0.00 | 0.00 | 0.00 | 77 | 1021.3 |
| 20260830142954 | 79 | 191 | 3.0 | 3.0 | 0.00 | 0.00 | 0.00 | 80 | 1021.3 |
| 20260830142449 | 79 | 310 | 0.0 | 0.0 | 0.00 | 0.00 | 0.00 | 80 | 1021.2 |
| 20260830141944 | 79 | 259 | 2.0 | 2.0 | 0.00 | 0.00 | 0.00 | 79 | 1021.2 |
| 20260830141439 | 79 | 199 | 2.0 | 5.0 | 0.00 | 0.00 | 0.00 | 78 | 1021.1 |
| 20260830140934 | 78 | 344 | 0.0 | 0.0 | 0.00 | 0.00 | 0.00 | 80 | 1021.2 |
| 20260830140430 | 78 | 352 | 1.0 | 1.0 | 0.00 | 0.00 | 0.00 | 80 | 1020.9 |
| 20260830135928 | 77 | 338 | 1.0 | 1.0 | 0.00 | 0.00 | 0.00 | 81 | 1020.9 |
| 20260830135424 | 76 | 337 | 2.0 | 2.0 | 0.00 | 0.00 | 0.00 | 82 | 1020.9 |
| 20260830134920 | 76 | 323 | 2.0 | 3.0 | 0.00 | 0.00 | 0.00 | 83 | 1020.9 |
| 20260830134415 | 76 | 292 | 1.0 | 2.0 | 0.00 | 0.00 | 0.00 | 82 | 1020.8 |
| 20260830133911 | 75 | 349 | 0.0 | 0.0 | 0.00 | 0.00 | 0.00 | 84 | 1021.0 |
| 20260830133406 | 75 | 338 | 0.0 | 1.0 | 0.00 | 0.00 | 0.00 | 84 | 1021.0 |
| 20260830132901 | 74 | 145 | 2.0 | 2.0 | 0.00 | 0.00 | 0.00 | 84 | 1021.1 |
| 20260830132357 | 75 | 191 | 3.0 | 3.0 | 0.00 | 0.00 | 0.00 | 84 | 1021.1 |
| 20260830131856 | 75 | 324 | 1.0 | 1.0 | 0.00 | 0.00 | 0.00 | 86 | 1021.1 |
| 20260830131356 | 75 | 350 | 0.0 | 0.0 | 0.00 | 0.00 | 0.00 | 85 | 1021.1 |
| 20260830130851 | 75 | 351 | 0.0 | 0.0 | 0.00 | 0.00 | 0.00 | 85 | 1021.2 |
| 20260830130347 | 74 | 344 | 0.0 | 0.0 | 0.00 | 0.00 | 0.00 | 86 | 1021.2 |
| 20260830125845 | 72 | 351 | 0.0 | 0.0 | 0.00 | 0.00 | 0.00 | 90 | 1021.2 |
| 20260830125341 | 71 | 357 | 0.0 | 0.0 | 0.00 | 0.00 | 0.00 | 91 | 1021.2 |
| 20260830124839 | 70 | 353 | 0.0 | 0.0 | 0.00 | 0.00 | 0.00 | 93 | 1021.3 |
| 20260830124334 | 69 | 352 | 0.0 | 0.0 | 0.00 | 0.00 | 0.00 | 95 | 1021.3 |
| 20260830123830 | 69 | 12 | 0.0 | 0.0 | 0.00 | 0.00 | 0.00 | 98 | 1021.2 |
| 20260830123327 | 68 | 353 | 0.0 | 0.0 | 0.00 | 0.00 | 0.00 | 99 | 1021.1 |
| 20260830122824 | 67 | 1 | 0.0 | 0.0 | 0.00 | 0.00 | 0.00 | 99 | 1021.0 |
| 20260830122319 | 67 | 354 | 0.0 | 0.0 | 0.00 | 0.00 | 0.00 | 99 | 1020.8 |
| 20260830121814 | 67 | 347 | 0.0 | 0.0 | 0.00 | 0.00 | 0.00 | 99 | 1021.2 |
| 20260830121314 | 66 | 341 | 0.0 | 0.0 | 0.00 | 0.00 | 0.00 | 99 | 1020.9 |
| 20260830120808 | 66 | 344 | 0.0 | 0.0 | 0.00 | 0.00 | 0.00 | 99 | 1020.8 |
| 20260830120304 | 65 | 351 | 0.0 | 0.0 | 0.00 | 0.00 | 0.00 | 99 | 1020.8 |
| 20260830115801 | 64 | 346 | 0.0 | 0.0 | 0.00 | 0.00 | 0.00 | 99 | 1020.8 |
| 20260830115256 | 64 | 344 | 0.0 | 0.0 | 0.00 | 0.00 | 0.00 | 99 | 1020.9 |
| 20260830114752 | 63 | 340 | 0.0 | 0.0 | 0.00 | 0.00 | 0.00 | 99 | 1020.9 |
| 20260830114248 | 63 | 341 | 0.0 | 0.0 | 0.00 | 0.00 | 0.00 | 99 | 1020.8 |
| 20260830113743 | 63 | 335 | 0.0 | 0.0 | 0.00 | 0.00 | 0.00 | 99 | 1020.8 |
| 20260830113237 | 63 | 346 | 0.0 | 0.0 | 0.00 | 0.00 | 0.00 | 99 | 1020.7 |
| 20260830112733 | 63 | 349 | 0.0 | 0.0 | 0.00 | 0.00 | 0.00 | 99 | 1020.8 |
| 20260830112230 | 63 | 346 | 0.0 | 0.0 | 0.00 | 0.00 | 0.00 | 99 | 1020.7 |
| 20260830111725 | 63 | 347 | 0.0 | 0.0 | 0.00 | 0.00 | 0.00 | 99 | 1020.7 |
| 20260830111220 | 63 | 348 | 0.0 | 0.0 | 0.00 | 0.00 | 0.00 | 99 | 1020.6 |
| 20260830110720 | 63 | 342 | 0.0 | 0.0 | 0.00 | 0.00 | 0.00 | 99 | 1020.5 |
| 20260830110217 | 62 | 347 | 0.0 | 0.0 | 0.00 | 0.00 | 0.00 | 99 | 1020.6 |
| 20260830105716 | 62 | 346 | 0.0 | 0.0 | 0.00 | 0.00 | 0.00 | 99 | 1020.6 |
| 20260830105212 | 63 | 346 | 0.0 | 0.0 | 0.00 | 0.00 | 0.00 | 99 | 1020.7 |
| 20260830104708 | 64 | 346 | 0.0 | 0.0 | 0.00 | 0.00 | 0.00 | 99 | 1020.5 |
| 20260830104205 | 63 | 349 | 0.0 | 0.0 | 0.00 | 0.00 | 0.00 | 99 | 1020.6 |
| 20260830103704 | 63 | 345 | 0.0 | 0.0 | 0.00 | 0.00 | 0.00 | 99 | 1020.6 |
| 20260830103159 | 63 | 345 | 0.0 | 0.0 | 0.00 | 0.00 | 0.00 | 99 | 1020.5 |
| 20260830102657 | 63 | 345 | 0.0 | 0.0 | 0.00 | 0.00 | 0.00 | 99 | 1020.6 |
| 20260830102154 | 63 | 345 | 0.0 | 0.0 | 0.00 | 0.00 | 0.00 | 99 | 1020.6 |
| 20260830101650 | 64 | 345 | 0.0 | 0.0 | 0.00 | 0.00 | 0.00 | 99 | 1020.7 |
| 20260830101145 | 63 | 345 | 0.0 | 0.0 | 0.00 | 0.00 | 0.00 | 99 | 1020.4 |
| 20260830100645 | 64 | 345 | 0.0 | 0.0 | 0.00 | 0.00 | 0.00 | 99 | 1020.3 |
| 20260830100138 | 64 | 344 | 0.0 | 0.0 | 0.00 | 0.00 | 0.00 | 99 | 1020.5 |
| 20260830095637 | 64 | 343 | 0.0 | 0.0 | 0.00 | 0.00 | 0.00 | 99 | 1020.5 |
| 20260830095134 | 64 | 345 | 0.0 | 0.0 | 0.00 | 0.00 | 0.00 | 99 | 1020.1 |
| 20260830094630 | 64 | 345 | 0.0 | 0.0 | 0.00 | 0.00 | 0.00 | 99 | 1020.4 |
| 20260830094125 | 64 | 345 | 0.0 | 0.0 | 0.00 | 0.00 | 0.00 | 99 | 1020.2 |